Location: Katowice
(50.2611°N, 19.0242°E)
Time: 03:08:33
(UTC+02:00)

Tiros 1 - Pass Details

Date: 01 September 2019
Orbit: 630 x 664 km, 48.4° (Epoch: 18 September)

Event Time Altitude Azimuth Distance (km) Brightness Sun altitude
Rises 19:54:11 0° 194° (SSW) 2,912 10.5 -4.7°
Reaches altitude 10° 19:57:30 10° 170° (S) 2,005 9.4 -5.2°
Maximum altitude 19:59:52 14° 138° (SE) 1,754 8.9 -5.5°
Drops below altitude 10° 20:02:14 10° 107° (ESE) 2,007 9.0 -5.9°
Enters shadow 20:03:25 - 96° (E) 2,282 9.3 -6.1°
